This is the latest recevied weather packets stored in our database for station/object HK4DAP-11. If no packets are shown the sender has not sent any weather packets the latest 10 day(s).
| Time | Temp. | Humidity | Pressure | Rain* | Wind** | Luminosity | Snow |
|---|---|---|---|---|---|---|---|
| 1787660384 | 25.56° C | 70% | 851.2 hPa | - | - | - | - |
| 1787660084 | 26.11° C | 69% | 851.3 hPa | - | - | - | - |
| 1787659784 | 26.11° C | 69% | 851.3 hPa | - | - | - | - |
| 1787659484 | 26.11° C | 69% | 851.3 hPa | - | - | - | - |
| 1787659185 | 26.11° C | 69% | 851.2 hPa | - | - | - | - |
| 1787658883 | 26.11° C | 69% | 851.2 hPa | - | - | - | - |
| 1787658583 | 26.11° C | 69% | 851.2 hPa | - | - | - | - |
| 1787658283 | 26.11° C | 70% | 851.2 hPa | - | - | - | - |
| 1787657983 | 26.11° C | 70% | 851.2 hPa | - | - | - | - |
| 1787657683 | 25.56° C | 71% | 851.1 hPa | - | - | - | - |
| 1787657384 | 25.56° C | 70% | 851 hPa | - | - | - | - |
| 1787657082 | 25.56° C | 70% | 850.9 hPa | - | - | - | - |
| 1787656782 | 25.56° C | 70% | 850.9 hPa | - | - | - | - |
| 1787656482 | 25.56° C | 70% | 850.9 hPa | - | - | - | - |
| 1787656182 | 25.56° C | 70% | 850.9 hPa | - | - | - | - |
| 1787655882 | 25.56° C | 70% | 850.8 hPa | - | - | - | - |
| 1787655582 | 25.56° C | 70% | 850.9 hPa | - | - | - | - |
| 1787655282 | 25.56° C | 71% | 850.8 hPa | - | - | - | - |
| 1787654981 | 26.11° C | 69% | 850.7 hPa | - | - | - | - |
| 1787654681 | 26.11° C | 69% | 850.6 hPa | - | - | - | - |
| 1787654381 | 26.11° C | 70% | 850.5 hPa | - | - | - | - |
| 1787654081 | 26.11° C | 71% | 850.3 hPa | - | - | - | - |
| 1787653781 | 26.11° C | 73% | 850.3 hPa | - | - | - | - |
| 1787653481 | 26.11° C | 68% | 850.3 hPa | - | - | - | - |
| 1787653181 | 25.56° C | 69% | 850.2 hPa | - | - | - | - |
* Rain since midnight (hover to see other rain measurements)
** Current wind speed in m/s (hover to see current wind gust speed)